EW2974 Weather Reports


Display with metric or nautical units.
time (UTC)temp
F
wind
direction
speed
MPH
gust
MPH
rain 1hr
in
rain 24hr
in
rain mn
in
humidity
%
barometer
mb
20260904051905 68 300 0.0 0.0 0.00 1.29 0.00 96 1013.2
20260904051405 68 300 0.0 0.0 0.00 1.29 0.00 96 1013.1
20260904050405 68 300 0.0 0.0 0.00 1.29 0.00 96 1013.0
20260904045905 68 300 0.0 0.0 0.00 1.29 0.00 96 1012.9
20260904045405 68 300 0.0 0.0 0.00 1.29 0.00 95 1012.7
20260904044905 68 300 0.0 0.0 0.00 1.29 0.00 95 1012.6
20260904044405 68 300 0.0 0.0 0.00 1.29 0.00 95 1012.6
20260904043905 68 300 0.0 0.0 0.00 1.29 0.00 95 1012.4
20260904043405 68 300 0.0 0.0 0.05 1.29 0.00 95 1012.7
20260904042905 68 300 0.0 0.0 0.05 1.29 0.00 95 1012.9
20260904041905 69 300 0.0 0.0 0.14 1.29 0.00 95 1012.8
20260904040905 69 300 0.0 0.0 0.15 1.29 0.00 95 1012.8
20260904040405 69 300 0.0 0.0 0.15 1.29 0.00 96 1012.9
20260904035905 69 300 0.0 0.0 0.15 1.29 1.29 96 1013.2
20260904035405 69 302 0.0 0.0 0.15 1.29 1.29 95 1013.2
20260904034905 69 286 1.0 3.0 0.15 1.29 1.29 95 1012.7
20260904034405 69 276 1.0 3.0 0.15 1.29 1.29 95 1012.3
20260904033905 69 154 1.0 3.0 0.15 1.29 1.29 95 1012.6
20260904033405 69 257 3.0 8.0 0.11 1.25 1.25 95 1012.8
20260904032905 69 267 2.0 5.0 0.10 1.24 1.24 95 1012.1
20260904030905 69 269 0.0 0.0 0.00 1.14 1.14 95 1012.3
20260904030405 69 269 0.0 0.0 0.00 1.14 1.14 95 1012.6
20260904025905 69 269 0.0 0.0 0.00 1.14 1.14 95 1012.6
20260904025405 69 269 0.0 0.0 0.00 1.14 1.14 95 1012.5
20260904024905 69 269 0.0 0.0 0.00 1.14 1.14 95 1012.5
20260904023405 69 180 0.0 0.0 0.00 1.14 1.14 95 1012.6
20260904022905 69 180 0.0 0.0 0.00 1.14 1.14 95 1012.5
20260904021905 69 180 0.0 0.0 0.00 1.14 1.14 95 1012.4
20260904020904 69 180 0.0 0.0 0.00 1.14 1.14 95 1012.1
20260904020404 69 211 0.0 0.0 0.00 1.14 1.14 95 1012.4
20260904015905 69 261 0.0 0.0 0.00 1.14 1.14 95 1012.3
20260904014904 69 262 0.0 0.0 0.00 1.14 1.14 95 1012.4
20260904014404 69 262 0.0 0.0 0.00 1.14 1.14 95 1012.4
20260904013405 69 262 0.0 0.0 0.01 1.14 1.14 95 1012.3
20260904012905 69 262 0.0 0.0 0.02 1.14 1.14 95 1012.4
20260904012405 69 262 0.0 0.0 0.02 1.14 1.14 95 1012.5
20260904011405 69 262 0.0 0.0 0.02 1.14 1.14 95 1012.4
20260904010405 69 262 0.0 0.0 0.05 1.14 1.14 94 1012.8
20260904005904 69 262 0.0 0.0 0.07 1.14 1.14 94 1013.2
20260904005405 69 262 0.0 0.0 0.08 1.14 1.14 94 1013.4
20260904004905 69 269 0.0 0.0 0.10 1.14 1.14 95 1013.3
20260904004405 69 269 0.0 0.0 0.10 1.14 1.14 95 1013.2
20260904003905 69 269 0.0 0.0 0.11 1.13 1.13 95 1013.0
20260904003405 69 270 0.0 0.0 0.11 1.13 1.13 95 1013.1
20260904002405 69 270 0.0 0.0 0.13 1.12 1.12 95 1013.7
20260904001905 69 270 0.0 0.0 0.13 1.13 1.12 95 1013.9
20260904001404 69 269 0.0 0.0 0.14 1.13 1.12 95 1014.1
20260903235904 69 269 0.0 0.0 0.17 1.08 1.07 95 1015.1
20260903235405 69 269 0.0 1.0 0.18 1.07 1.06 95 1015.6
20260903234905 69 201 0.0 0.0 0.16 1.05 1.04 94 1015.9
20260903233905 69 187 0.0 0.0 0.15 1.03 1.02 94 1016.1
20260903233404 69 59 0.0 0.0 0.17 1.03 1.02 94 1015.5
20260903232905 69 59 0.0 0.0 0.15 1.01 1.00 94 1015.1
20260903232404 69 59 0.0 0.0 0.14 1.00 0.99 94 1014.5
20260903231905 69 59 0.0 1.0 0.14 1.00 0.99 94 1014.3
20260903231404 70 83 0.0 5.0 0.13 0.99 0.98 93 1014.0
20260903230905 70 49 0.0 3.0 0.11 0.97 0.96 92 1014.5
20260903230404 71 34 1.0 3.0 0.07 0.93 0.92 92 1015.1
20260903225912 73 50 4.0 14.0 0.05 0.91 0.90 93 1015.3
20260903225405 73 5 0.0 0.0 0.03 0.89 0.88 95 1013.3
20260903224905 73 5 0.0 0.0 0.03 0.89 0.88 95 1012.6
20260903224405 74 5 0.0 0.0 0.03 0.89 0.88 95 1012.9
20260903223904 74 5 0.0 0.0 0.02 0.88 0.87 95 1012.6
20260903223404 74 5 0.0 0.0 0.00 0.86 0.85 95 1012.2
20260903222905 74 5 0.0 0.0 0.00 0.86 0.85 95 1012.4
20260903222404 74 5 0.0 0.0 0.00 0.86 0.85 94 1012.5
20260903221904 74 5 0.0 0.0 0.00 0.86 0.85 95 1012.4
20260903221405 74 5 0.0 0.0 0.00 0.86 0.85 94 1012.6
20260903220904 74 5 0.0 0.0 0.00 0.86 0.85 94 1012.6
20260903220404 74 5 0.0 0.0 0.00 0.86 0.85 94 1012.3
20260903215905 74 5 0.0 0.0 0.00 0.86 0.85 94 1012.4
20260903215405 74 5 0.0 0.0 0.00 0.86 0.85 94 1012.6
20260903214904 74 5 0.0 0.0 0.00 0.87 0.85 94 1012.4
20260903213904 74 5 0.0 0.0 0.00 0.87 0.85 94 1012.1
20260903213404 74 5 0.0 0.0 0.00 0.87 0.85 94 1012.2
20260903212904 75 279 0.0 0.0 0.00 0.87 0.85 94 1012.0
20260903212404 74 279 0.0 0.0 0.02 0.87 0.85 94 1012.1
20260903211905 74 279 0.0 0.0 0.15 0.87 0.85 94 1011.9
20260903211404 74 292 0.0 0.0 0.15 0.87 0.85 94 1011.4
20260903210904 74 41 0.0 0.0 0.30 0.88 0.85 94 1010.6
20260903210404 74 41 0.0 0.0 0.43 0.92 0.85 94 1010.5
20260903205905 74 41 0.0 0.0 0.43 0.92 0.85 94 1010.5
20260903205405 73 41 0.0 0.0 0.48 0.92 0.85 94 1010.6
20260903204904 73 41 0.0 1.0 0.49 0.92 0.85 94 1010.9
20260903204404 72 38 0.0 0.0 0.49 0.94 0.85 94 1010.7
20260903203404 71 38 0.0 0.0 0.49 0.94 0.85 93 1011.4
20260903202905 71 38 0.0 0.0 0.49 0.94 0.85 92 1012.0
20260903201905 71 36 0.0 0.0 0.34 0.79 0.70 90 1012.9
20260903200404 76 34 0.0 3.0 0.06 0.51 0.42 80 1013.0
20260903195905 79 257 0.0 8.0 0.06 0.51 0.42 72 1010.7
20260903195404 83 255 10.0 22.0 0.01 0.46 0.37 64 1010.0
20260903194904 86 248 3.0 18.0 0.00 0.45 0.36 64 1009.9
20260903194404 87 271 1.0 14.0 0.00 0.45 0.36 71 1010.5
20260903193905 88 243 0.0 0.0 0.00 0.45 0.36 72 1010.4
20260903193404 89 243 0.0 0.0 0.00 0.45 0.36 71 1010.3
20260903192904 89 192 0.0 0.0 0.00 0.45 0.36 69 1009.9
20260903192404 90 249 0.0 0.0 0.00 0.45 0.36 67 1010.0
20260903191904 90 262 0.0 1.0 0.00 0.45 0.36 66 1010.3
20260903191404 90 256 0.0 1.0 0.00 0.45 0.36 66 1010.4
20260903190904 91 282 0.0 3.0 0.00 0.45 0.36 64 1010.6
20260903190404 91 198 1.0 8.0 0.00 0.45 0.36 65 1010.8
20260903185904 91 230 0.0 6.0 0.00 0.45 0.36 65 1011.0
20260903185404 91 275 0.0 5.0 0.00 0.45 0.36 67 1011.0
20260903184904 90 257 0.0 1.0 0.00 0.45 0.36 68 1011.2
20260903184404 89 242 0.0 1.0 0.00 0.45 0.36 70 1011.3
20260903183905 89 263 1.0 5.0 0.00 0.45 0.36 68 1011.4
20260903183404 88 262 0.0 5.0 0.00 0.45 0.36 70 1011.5
20260903182905 88 264 0.0 5.0 0.00 0.45 0.36 70 1011.7
20260903182404 88 165 0.0 1.0 0.00 0.45 0.36 70 1011.7
20260903181905 88 253 1.0 8.0 0.00 0.45 0.36 69 1011.7
20260903181404 88 271 0.0 6.0 0.00 0.45 0.36 70 1011.8
20260903180904 88 195 0.0 0.0 0.00 0.45 0.36 72 1011.8
20260903180404 87 195 0.0 3.0 0.00 0.45 0.36 74 1011.7
20260903175904 87 302 0.0 1.0 0.00 0.45 0.36 72 1011.7
20260903175404 87 251 1.0 8.0 0.00 0.45 0.36 70 1011.8
20260903174905 87 158 0.0 5.0 0.00 0.45 0.36 72 1011.8
20260903174405 87 258 0.0 5.0 0.00 0.45 0.36 70 1012.0
20260903173904 87 275 2.0 8.0 0.00 0.45 0.36 72 1012.1
20260903173404 87 229 0.0 5.0 0.00 0.45 0.36 70 1012.2
20260903172905 87 258 0.0 9.0 0.00 0.45 0.36 70 1012.4
20260903172404 87 147 1.0 6.0 0.00 0.45 0.36 70 1012.3
20260903171404 87 178 1.0 6.0 0.00 0.45 0.36 74 1012.4
20260903170904 87 210 0.0 0.0 0.00 0.45 0.36 75 1012.4
20260903170404 86 250 0.0 0.0 0.00 0.45 0.36 72 1012.4
20260903165905 86 244 3.0 12.0 0.00 0.45 0.36 75 1012.5
20260903164905 85 193 0.0 0.0 0.00 0.45 0.36 77 1012.7
20260903163904 84 225 0.0 1.0 0.00 0.45 0.36 78 1012.8
20260903162904 83 286 0.0 1.0 0.00 0.45 0.36 76 1012.9
20260903162405 83 178 0.0 0.0 0.00 0.45 0.36 79 1012.9
20260903161904 82 277 0.0 8.0 0.00 0.45 0.36 79 1012.9
20260903161404 82 274 1.0 6.0 0.00 0.45 0.36 76 1012.9
20260903160904 82 197 3.0 8.0 0.00 0.45 0.36 77 1012.9
20260903160405 81 269 2.0 12.0 0.00 0.45 0.36 79 1013.1
20260903155904 81 287 0.0 9.0 0.00 0.45 0.36 82 1013.2
20260903154904 80 252 1.0 6.0 0.00 0.45 0.36 81 1013.2
20260903154404 80 231 0.0 1.0 0.00 0.45 0.36 83 1013.4
20260903153904 79 244 0.0 8.0 0.00 0.45 0.36 82 1013.4
20260903152904 78 163 0.0 3.0 0.00 0.45 0.36 84 1013.4
20260903152404 78 182 0.0 1.0 0.00 0.45 0.36 85 1013.4
20260903151906 78 282 0.0 8.0 0.00 0.45 0.36 84 1013.4
20260903151404 78 229 1.0 6.0 0.00 0.45 0.36 85 1013.4
20260903150404 77 277 1.0 9.0 0.00 0.45 0.36 87 1013.5
20260903145904 77 268 0.0 3.0 0.00 0.45 0.36 87 1013.5
20260903145404 76 246 0.0 3.0 0.00 0.45 0.36 88 1013.6
20260903144904 76 327 0.0 6.0 0.01 0.45 0.36 89 1013.6
20260903144404 75 194 1.0 8.0 0.01 0.45 0.36 91 1013.7
20260903143904 75 159 0.0 6.0 0.01 0.45 0.36 92 1013.7
20260903143404 74 150 1.0 5.0 0.01 0.45 0.36 92 1013.7
20260903142904 74 137 2.0 5.0 0.01 0.45 0.36 93 1013.7
20260903142404 73 177 0.0 0.0 0.01 0.45 0.36 93 1013.7
20260903141404 73 173 0.0 0.0 0.01 0.45 0.36 94 1013.8
20260903140904 73 173 0.0 0.0 0.01 0.45 0.36 95 1013.8
20260903140404 72 173 0.0 0.0 0.01 0.45 0.36 96 1013.7
20260903135904 72 173 0.0 0.0 0.01 0.45 0.36 96 1013.7
20260903135405 71 173 0.0 0.0 0.01 0.45 0.36 95 1013.7
20260903134904 71 173 0.0 1.0 0.00 0.44 0.35 96 1013.8
20260903134404 71 173 0.0 0.0 0.00 0.44 0.35 96 1013.8
20260903133404 71 173 0.0 0.0 0.00 0.44 0.35 96 1013.9
20260903132907 71 173 0.0 0.0 0.00 0.44 0.35 96 1014.0
20260903132403 70 173 0.0 0.0 0.00 0.44 0.35 96 1014.0
20260903131404 70 173 0.0 0.0 0.00 0.44 0.35 96 1014.1
20260903130904 70 173 0.0 0.0 0.00 0.44 0.35 96 1014.1
20260903130405 70 169 0.0 0.0 0.00 0.44 0.35 96 1014.2
20260903125905 69 169 0.0 0.0 0.00 0.44 0.35 96 1014.2
20260903125404 69 169 0.0 0.0 0.00 0.44 0.35 96 1014.2
20260903124904 69 169 0.0 0.0 0.00 0.44 0.35 96 1014.3
20260903124404 69 169 0.0 0.0 0.00 0.44 0.35 95 1014.2
20260903123904 69 169 0.0 0.0 0.00 0.44 0.35 95 1014.3
20260903122904 69 169 0.0 0.0 0.01 0.44 0.35 95 1014.5
20260903122404 69 169 0.0 0.0 0.18 0.44 0.35 95 1014.8
20260903121904 69 169 0.0 0.0 0.18 0.44 0.35 95 1015.0
20260903121405 69 169 0.0 0.0 0.19 0.44 0.35 95 1014.9
20260903120904 69 169 0.0 0.0 0.19 0.44 0.35 95 1014.4
20260903120404 69 169 0.0 0.0 0.19 0.44 0.35 95 1014.2
20260903115904 69 169 0.0 0.0 0.19 0.44 0.35 95 1014.1
20260903115405 68 169 0.0 0.0 0.19 0.44 0.35 95 1014.3
20260903114904 68 169 0.0 0.0 0.19 0.44 0.35 95 1014.2
20260903114404 68 169 0.0 0.0 0.19 0.44 0.35 95 1014.1
20260903113904 68 169 0.0 0.0 0.19 0.44 0.35 95 1014.4
20260903113404 68 168 0.0 0.0 0.20 0.44 0.35 95 1014.4
20260903112904 69 168 0.0 0.0 0.19 0.43 0.34 95 1014.6
20260903112404 68 168 0.0 0.0 0.03 0.26 0.17 95 1015.1
20260903110904 69 143 0.0 0.0 0.15 0.25 0.16 95 1014.1
20260903110404 69 143 0.0 0.0 0.15 0.25 0.16 95 1014.4
20260903105904 69 143 0.0 0.0 0.15 0.25 0.16 94 1014.9
20260903105404 69 143 0.0 0.0 0.15 0.25 0.16 94 1014.7
20260903104904 69 143 0.0 0.0 0.15 0.25 0.16 94 1014.4
20260903103904 69 143 0.0 0.0 0.15 0.25 0.16 93 1013.9
20260903103404 69 143 0.0 0.0 0.14 0.24 0.15 93 1013.9
20260903102404 70 143 0.0 0.0 0.13 0.23 0.14 92 1014.3
20260903101904 70 108 0.0 0.0 0.11 0.21 0.12 92 1014.8
20260903100404 71 205 1.0 8.0 0.00 0.10 0.01 94 1014.9
20260903095904 71 51 0.0 1.0 0.00 0.10 0.01 95 1014.4
20260903095404 72 52 0.0 0.0 0.00 0.10 0.01 95 1013.9
20260903094904 72 31 0.0 1.0 0.00 0.10 0.01 96 1013.6
20260903093903 72 217 0.0 0.0 0.01 0.10 0.01 96 1012.3
20260903093404 72 217 0.0 0.0 0.01 0.10 0.01 96 1012.2
20260903092903 72 217 0.0 0.0 0.01 0.10 0.01 96 1012.1
20260903092404 71 217 0.0 0.0 0.01 0.10 0.01 95 1012.1
20260903091904 71 217 0.0 0.0 0.01 0.10 0.01 95 1012.2
20260903091404 71 217 0.0 0.0 0.01 0.10 0.01 95 1012.2
20260903090904 71 217 0.0 0.0 0.01 0.10 0.01 95 1012.1
20260903090404 71 217 0.0 0.0 0.01 0.10 0.01 95 1012.3
20260903085904 71 217 0.0 0.0 0.01 0.10 0.01 95 1012.3
20260903085404 71 217 0.0 0.0 0.01 0.10 0.01 95 1012.3
20260903084904 71 217 0.0 0.0 0.01 0.10 0.01 95 1012.2
20260903084404 71 217 0.0 0.0 0.00 0.09 0.00 95 1012.2
20260903083904 71 217 0.0 0.0 0.00 0.09 0.00 95 1012.3
20260903083405 71 217 0.0 0.0 0.00 0.09 0.00 95 1012.3
20260903082904 71 217 0.0 0.0 0.00 0.09 0.00 95 1012.2
20260903082404 71 217 0.0 0.0 0.00 0.09 0.00 95 1012.2
20260903081904 71 217 0.0 0.0 0.00 0.09 0.00 95 1012.2
20260903081404 71 217 0.0 0.0 0.00 0.09 0.00 95 1012.2
20260903080904 72 217 0.0 0.0 0.00 0.09 0.00 95 1012.3
20260903080404 72 217 0.0 0.0 0.00 0.09 0.00 95 1012.1
20260903075903 72 217 0.0 0.0 0.00 0.09 0.00 95 1012.2
20260903075404 72 217 0.0 0.0 0.00 0.09 0.00 95 1012.3
20260903074404 72 217 0.0 0.0 0.00 0.09 0.00 95 1012.3
20260903073904 72 217 0.0 0.0 0.00 0.09 0.00 95 1012.1
20260903073404 72 217 0.0 0.0 0.00 0.09 0.00 95 1012.1
20260903072904 72 217 0.0 0.0 0.00 0.09 0.00 95 1012.1
20260903072404 72 217 0.0 0.0 0.00 0.09 0.00 95 1012.2
20260903071904 73 217 0.0 0.0 0.00 0.09 0.00 95 1012.2
20260903070404 73 217 0.0 0.0 0.00 0.09 0.00 95 1012.3
20260903065403 73 217 0.0 0.0 0.00 0.09 0.00 95 1012.4
20260903063904 74 217 0.0 0.0 0.00 0.09 0.00 96 1012.6
20260903062904 74 217 0.0 0.0 0.00 0.09 0.00 96 1012.9
20260903062403 74 223 0.0 0.0 0.00 0.09 0.00 96 1012.1
20260903061904 74 223 0.0 0.0 0.00 0.09 0.00 95 1012.0
20260903061405 74 223 0.0 0.0 0.00 0.09 0.00 95 1011.8
20260903060905 74 223 0.0 0.0 0.00 0.09 0.00 95 1011.8
20260903060405 74 223 0.0 0.0 0.00 0.09 0.00 96 1011.8
20260903055904 74 223 0.0 0.0 0.00 0.09 0.00 95 1011.8
20260903055405 74 223 0.0 0.0 0.00 0.09 0.00 95 1011.8
20260903054905 74 223 0.0 0.0 0.00 0.09 0.00 95 1011.7
20260903054405 74 223 0.0 0.0 0.00 0.09 0.00 95 1011.7
20260903053905 74 223 0.0 0.0 0.00 0.09 0.00 95 1011.8
20260903053405 74 223 0.0 0.0 0.00 0.09 0.00 95 1011.8
20260903052905 74 223 0.0 0.0 0.00 0.09 0.00 95 1011.7